Flag for Germany Weather past 2 weeks in Voerde (Niederrhein), North Rhine-Westphalia, Germany

Now
35 °F

Overcast.


Feels Like: 32 °F
Forecast: 28 / 38 °F
Wind: 3 mph from West

Location: Duesseldorf

Current Time: Dec 26, 2014 at 5:36:42 AM

Latest Report: Dec 26, 2014 at 5:00 AM


Visibility: 11 mi

Pressure: 30.40 "Hg

Humidity: 97%

Dew point: 34 °F

Location of Voerde (Niederrhein)Location

Historic Weather in Voerde (Niederrhein) — Graph

°F

Voerde (Niederrhein) temperature yesterday

Maximum temperature yesterday: 43 °F (at 1:00 PM)
Minimum temperature yesterday: 36 °F (at 9:00 PM)
Average temperature yesterday: 40 °F

Past Weeks' High & Low Weather Summary

 TemperatureHumidityPressure
High55 °F (Dec 18, 7:00 PM)100% (Dec 14, 6:00 AM)30.41 "Hg (Dec 14, 6:00 AM)
Low30 °F (Dec 14, 6:00 AM)70% (Dec 20, 5:00 PM)29.41 "Hg (Dec 12, 1:00 PM)
Average44 °F86%29.97 "Hg
* Reported Dec 11 3:00 AM — Dec 26 3:00 AM, Voerde (Niederrhein), Weather by CustomWeather, © 2014

Note: Actual official high and low records may vary slightly from our data, if they occured in-between our weather recording intervals... More about our weather records

Advertising

Voerde (Niederrhein) weather history for previous 24 hours

 ConditionsComfort  
Time TempWeatherWind HumidityBarometerVisibility
3:00 AM
Dec 26
33 °FOvercast.2 mph98%30.40 "Hg12 mi
2:00 AM31 °FFog.1 mph98%30.39 "Hg14 mi
1:00 AM35 °FPassing clouds.2 mph96%30.39 "Hg16 mi
12:00 AM36 °FPassing clouds.2 mph95%30.38 "Hg17 mi
11:00 PM
Dec 25
36 °FPassing clouds.3 mph92%30.36 "Hg19 mi
9:00 PM36 °FPassing clouds.3 mph93%30.34 "Hg19 mi
8:00 PM37 °FPassing clouds.3 mph91%30.33 "Hg16 mi
7:00 PM38 °FPassing clouds.3 mph89%30.31 "Hg12 mi
6:00 PM39 °FPassing clouds.5 mph88%30.29 "Hg16 mi
5:00 PM39 °FOvercast.3 mph91%30.28 "Hg12 mi
3:00 PM41 °FOvercast.3 mph88%30.25 "Hg12 mi
2:00 PM40 °FOvercast.6 mph90%30.25 "Hg12 mi
1:00 PM43 °FSprinkles. Overcast.8 mph83%30.23 "Hg12 mi
12:00 PM43 °FPartly sunny.7 mph81%30.23 "Hg19 mi
11:00 AM42 °FOvercast.7 mph82%30.23 "Hg14 mi
9:00 AM39 °FScattered clouds.6 mph85%30.20 "Hg16 mi
8:00 AM40 °FPassing clouds.7 mph82%30.19 "Hg22 mi
7:00 AM40 °FPassing clouds.6 mph82%30.17 "Hg25 mi
6:00 AM38 °FClear.3 mph83%30.16 "Hg28 mi
5:00 AM39 °FClear.6 mph82%30.15 "Hg31 mi
Weather by CustomWeather, © 2014

See weather overviewHow to use our weather pages